#datetime,building,power
2023-09-13T00:00:00,75s,1.33
2023-09-13T00:01:00,75s,1.33
2023-09-13T00:02:00,75s,1.34
2023-09-13T00:03:00,75s,1.41
2023-09-13T00:04:00,75s,1.55
2023-09-13T00:05:00,75s,1.45
2023-09-13T00:06:00,75s,1.34
2023-09-13T00:07:00,75s,1.34
2023-09-13T00:08:00,75s,1.22
2023-09-13T00:09:00,75s,1.22
2023-09-13T00:10:00,75s,1.22
2023-09-13T00:11:00,75s,1.22
2023-09-13T00:12:00,75s,1.26
2023-09-13T00:13:00,75s,1.46
2023-09-13T00:14:00,75s,1.21
2023-09-13T00:15:00,75s,1.32
2023-09-13T00:16:00,75s,1.42
2023-09-13T00:17:00,75s,1.43
2023-09-13T00:18:00,75s,1.30
2023-09-13T00:19:00,75s,1.34
2023-09-13T00:20:00,75s,1.32
2023-09-13T00:21:00,75s,1.41
2023-09-13T00:22:00,75s,1.38
2023-09-13T00:23:00,75s,1.49
2023-09-13T00:24:00,75s,1.28
2023-09-13T00:25:00,75s,1.31
2023-09-13T00:26:00,75s,1.33
2023-09-13T00:27:00,75s,1.39
2023-09-13T00:28:00,75s,1.89
2023-09-13T00:29:00,75s,1.32
2023-09-13T00:30:00,75s,1.29
2023-09-13T00:31:00,75s,1.31
2023-09-13T00:32:00,75s,1.38
2023-09-13T00:33:00,75s,1.42
2023-09-13T00:34:00,75s,1.34
2023-09-13T00:35:00,75s,1.31
2023-09-13T00:36:00,75s,1.34
2023-09-13T00:37:00,75s,1.31
2023-09-13T00:38:00,75s,1.47
2023-09-13T00:39:00,75s,1.94
2023-09-13T00:40:00,75s,1.47
2023-09-13T00:41:00,75s,1.96
2023-09-13T00:42:00,75s,1.41
2023-09-13T00:43:00,75s,1.31
2023-09-13T00:44:00,75s,1.56
2023-09-13T00:45:00,75s,1.31
2023-09-13T00:46:00,75s,1.51
2023-09-13T00:47:00,75s,1.31
2023-09-13T00:48:00,75s,1.48
2023-09-13T00:49:00,75s,1.55
2023-09-13T00:50:00,75s,1.52
2023-09-13T00:51:00,75s,1.35
2023-09-13T00:52:00,75s,1.27
2023-09-13T00:53:00,75s,1.34
2023-09-13T00:54:00,75s,1.36
2023-09-13T00:55:00,75s,1.28
2023-09-13T00:56:00,75s,1.50
2023-09-13T00:57:00,75s,1.27
2023-09-13T00:58:00,75s,1.28
2023-09-13T00:59:00,75s,1.22
2023-09-13T01:00:00,75s,1.30
2023-09-13T01:01:00,75s,1.29
2023-09-13T01:02:00,75s,1.29
2023-09-13T01:03:00,75s,1.22
2023-09-13T01:04:00,75s,1.21
2023-09-13T01:05:00,75s,1.59
2023-09-13T01:06:00,75s,1.29
2023-09-13T01:07:00,75s,1.29
2023-09-13T01:08:00,75s,1.22
2023-09-13T01:09:00,75s,1.21
2023-09-13T01:10:00,75s,1.21
2023-09-13T01:11:00,75s,1.48
2023-09-13T01:12:00,75s,1.47
2023-09-13T01:13:00,75s,1.66
2023-09-13T01:14:00,75s,1.31
2023-09-13T01:15:00,75s,1.39
2023-09-13T01:16:00,75s,1.38
2023-09-13T01:17:00,75s,1.30
2023-09-13T01:18:00,75s,1.37
2023-09-13T01:19:00,75s,1.37
2023-09-13T01:20:00,75s,1.35
2023-09-13T01:21:00,75s,1.35
2023-09-13T01:22:00,75s,1.57
2023-09-13T01:23:00,75s,1.34
2023-09-13T01:24:00,75s,1.34
2023-09-13T01:25:00,75s,1.42
2023-09-13T01:26:00,75s,1.40
2023-09-13T01:27:00,75s,1.40
2023-09-13T01:28:00,75s,1.40
2023-09-13T01:29:00,75s,1.48
2023-09-13T01:30:00,75s,1.60
2023-09-13T01:31:00,75s,1.55
2023-09-13T01:32:00,75s,1.48
2023-09-13T01:33:00,75s,1.32
2023-09-13T01:34:00,75s,1.30
2023-09-13T01:35:00,75s,1.31
2023-09-13T01:36:00,75s,1.34
2023-09-13T01:37:00,75s,1.26
2023-09-13T01:38:00,75s,1.27
2023-09-13T01:39:00,75s,1.26
2023-09-13T01:40:00,75s,1.27
2023-09-13T01:41:00,75s,1.34
2023-09-13T01:42:00,75s,1.40
2023-09-13T01:43:00,75s,1.44
2023-09-13T01:44:00,75s,1.35
2023-09-13T01:45:00,75s,1.35
2023-09-13T01:46:00,75s,1.28
2023-09-13T01:47:00,75s,1.51
2023-09-13T01:48:00,75s,1.27
2023-09-13T01:49:00,75s,1.27
2023-09-13T01:50:00,75s,1.28
2023-09-13T01:51:00,75s,1.27
2023-09-13T01:52:00,75s,1.27
2023-09-13T01:53:00,75s,1.37
2023-09-13T01:54:00,75s,1.34
2023-09-13T01:55:00,75s,1.42
2023-09-13T01:56:00,75s,1.62
2023-09-13T01:57:00,75s,1.32
2023-09-13T01:58:00,75s,1.25
2023-09-13T01:59:00,75s,1.24
2023-09-13T02:00:00,75s,1.80
2023-09-13T02:01:00,75s,1.27
2023-09-13T02:02:00,75s,1.25
2023-09-13T02:03:00,75s,1.50
2023-09-13T02:04:00,75s,1.25
2023-09-13T02:05:00,75s,1.32
2023-09-13T02:06:00,75s,1.40
2023-09-13T02:07:00,75s,1.45
2023-09-13T02:08:00,75s,1.38
2023-09-13T02:09:00,75s,1.29
2023-09-13T02:10:00,75s,1.29
2023-09-13T02:11:00,75s,1.28
2023-09-13T02:12:00,75s,1.29
2023-09-13T02:13:00,75s,1.30
2023-09-13T02:14:00,75s,1.38
2023-09-13T02:15:00,75s,1.39
2023-09-13T02:16:00,75s,1.40
2023-09-13T02:17:00,75s,1.45
2023-09-13T02:18:00,75s,1.48
2023-09-13T02:19:00,75s,1.41
2023-09-13T02:20:00,75s,1.40
2023-09-13T02:21:00,75s,1.32
2023-09-13T02:22:00,75s,1.32
2023-09-13T02:23:00,75s,1.34
2023-09-13T02:24:00,75s,1.28
2023-09-13T02:25:00,75s,1.59
2023-09-13T02:26:00,75s,1.31
2023-09-13T02:27:00,75s,1.31
2023-09-13T02:28:00,75s,1.31
2023-09-13T02:29:00,75s,1.77
2023-09-13T02:30:00,75s,1.48
2023-09-13T02:31:00,75s,1.38
2023-09-13T02:32:00,75s,1.33
2023-09-13T02:33:00,75s,1.29
2023-09-13T02:34:00,75s,1.24
2023-09-13T02:35:00,75s,1.21
2023-09-13T02:36:00,75s,1.21
2023-09-13T02:37:00,75s,1.25
2023-09-13T02:38:00,75s,1.26
2023-09-13T02:39:00,75s,1.27
2023-09-13T02:40:00,75s,1.65
2023-09-13T02:41:00,75s,1.32
2023-09-13T02:42:00,75s,1.33
2023-09-13T02:43:00,75s,1.22
2023-09-13T02:44:00,75s,1.25
2023-09-13T02:45:00,75s,1.29
2023-09-13T02:46:00,75s,1.28
2023-09-13T02:47:00,75s,1.27
2023-09-13T02:48:00,75s,1.28
2023-09-13T02:49:00,75s,1.40
2023-09-13T02:50:00,75s,1.35
2023-09-13T02:51:00,75s,1.48
2023-09-13T02:52:00,75s,1.39
2023-09-13T02:53:00,75s,1.29
2023-09-13T02:54:00,75s,1.37
2023-09-13T02:55:00,75s,1.51
2023-09-13T02:56:00,75s,1.26
2023-09-13T02:57:00,75s,1.27
2023-09-13T02:58:00,75s,1.26
2023-09-13T02:59:00,75s,1.27
2023-09-13T03:00:00,75s,1.26
2023-09-13T03:01:00,75s,1.26
2023-09-13T03:02:00,75s,1.26
2023-09-13T03:03:00,75s,1.26
2023-09-13T03:04:00,75s,1.34
2023-09-13T03:05:00,75s,1.42
2023-09-13T03:06:00,75s,1.49
2023-09-13T03:07:00,75s,1.31
2023-09-13T03:08:00,75s,1.25
2023-09-13T03:09:00,75s,1.25
2023-09-13T03:10:00,75s,1.25
2023-09-13T03:11:00,75s,1.21
2023-09-13T03:12:00,75s,1.24
2023-09-13T03:13:00,75s,1.46
2023-09-13T03:14:00,75s,1.44
2023-09-13T03:15:00,75s,1.32
2023-09-13T03:16:00,75s,1.30
2023-09-13T03:17:00,75s,1.37
2023-09-13T03:18:00,75s,1.38
2023-09-13T03:19:00,75s,1.37
2023-09-13T03:20:00,75s,1.36
2023-09-13T03:21:00,75s,1.36
2023-09-13T03:22:00,75s,1.43
2023-09-13T03:23:00,75s,1.43
2023-09-13T03:24:00,75s,1.88
2023-09-13T03:25:00,75s,1.36
2023-09-13T03:26:00,75s,1.33
2023-09-13T03:27:00,75s,1.33
2023-09-13T03:28:00,75s,1.39
2023-09-13T03:29:00,75s,1.74
2023-09-13T03:30:00,75s,1.43
2023-09-13T03:31:00,75s,1.35
2023-09-13T03:32:00,75s,1.47
2023-09-13T03:33:00,75s,1.65
2023-09-13T03:34:00,75s,1.41
2023-09-13T03:35:00,75s,1.43
2023-09-13T03:36:00,75s,1.70
2023-09-13T03:37:00,75s,1.61
2023-09-13T03:38:00,75s,1.33
2023-09-13T03:39:00,75s,1.29
2023-09-13T03:40:00,75s,1.30
2023-09-13T03:41:00,75s,1.43
2023-09-13T03:42:00,75s,1.43
2023-09-13T03:43:00,75s,1.47
2023-09-13T03:44:00,75s,1.67
2023-09-13T03:45:00,75s,1.33
2023-09-13T03:46:00,75s,1.34
2023-09-13T03:47:00,75s,1.75
2023-09-13T03:48:00,75s,11.38
2023-09-13T03:49:00,75s,10.94
2023-09-13T03:50:00,75s,10.43
2023-09-13T03:51:00,75s,10.70
2023-09-13T03:52:00,75s,10.34
2023-09-13T03:53:00,75s,1.69
2023-09-13T03:54:00,75s,1.44
2023-09-13T03:55:00,75s,1.36
2023-09-13T03:56:00,75s,1.47
2023-09-13T03:57:00,75s,1.56
2023-09-13T03:58:00,75s,1.37
2023-09-13T03:59:00,75s,1.36
2023-09-13T04:00:00,75s,1.36
2023-09-13T04:01:00,75s,1.30
2023-09-13T04:02:00,75s,1.29
2023-09-13T04:03:00,75s,1.28
2023-09-13T04:04:00,75s,1.50
2023-09-13T04:05:00,75s,1.46
2023-09-13T04:06:00,75s,1.74
2023-09-13T04:07:00,75s,1.47
2023-09-13T04:08:00,75s,1.47
2023-09-13T04:09:00,75s,1.66
2023-09-13T04:10:00,75s,1.37
2023-09-13T04:11:00,75s,1.37
2023-09-13T04:12:00,75s,1.46
2023-09-13T04:13:00,75s,1.38
2023-09-13T04:14:00,75s,1.76
2023-09-13T04:15:00,75s,1.65
2023-09-13T04:16:00,75s,1.84
2023-09-13T04:17:00,75s,1.46
2023-09-13T04:18:00,75s,1.46
2023-09-13T04:19:00,75s,1.38
2023-09-13T04:20:00,75s,1.38
2023-09-13T04:21:00,75s,1.46
2023-09-13T04:22:00,75s,1.46
2023-09-13T04:23:00,75s,1.45
2023-09-13T04:24:00,75s,1.37
2023-09-13T04:25:00,75s,1.38
2023-09-13T04:26:00,75s,1.37
2023-09-13T04:27:00,75s,1.74
2023-09-13T04:28:00,75s,1.75
2023-09-13T04:29:00,75s,1.43
2023-09-13T04:30:00,75s,1.87
2023-09-13T04:31:00,75s,1.30
2023-09-13T04:32:00,75s,1.36
2023-09-13T04:33:00,75s,1.37
2023-09-13T04:34:00,75s,1.56
2023-09-13T04:35:00,75s,1.63
2023-09-13T04:36:00,75s,1.80
2023-09-13T04:37:00,75s,1.29
2023-09-13T04:38:00,75s,1.29
2023-09-13T04:39:00,75s,1.28
2023-09-13T04:40:00,75s,1.28
2023-09-13T04:41:00,75s,1.29
2023-09-13T04:42:00,75s,1.28
2023-09-13T04:43:00,75s,1.40
2023-09-13T04:44:00,75s,1.43
2023-09-13T04:45:00,75s,1.48
2023-09-13T04:46:00,75s,1.17
2023-09-13T04:47:00,75s,1.21
2023-09-13T04:48:00,75s,1.17
2023-09-13T04:49:00,75s,1.16
2023-09-13T04:50:00,75s,1.19
2023-09-13T04:51:00,75s,1.16
2023-09-13T04:52:00,75s,1.17
2023-09-13T04:53:00,75s,1.19
2023-09-13T04:54:00,75s,1.18
2023-09-13T04:55:00,75s,1.25
2023-09-13T04:56:00,75s,1.59
2023-09-13T04:57:00,75s,1.31
2023-09-13T04:58:00,75s,1.31
2023-09-13T04:59:00,75s,1.78
2023-09-13T05:00:00,75s,1.32
2023-09-13T05:01:00,75s,1.31
2023-09-13T05:02:00,75s,1.33
2023-09-13T05:03:00,75s,1.24
2023-09-13T05:04:00,75s,1.24
2023-09-13T05:05:00,75s,1.24
2023-09-13T05:06:00,75s,1.25
2023-09-13T05:07:00,75s,1.25
2023-09-13T05:08:00,75s,1.24
2023-09-13T05:09:00,75s,1.24
2023-09-13T05:10:00,75s,1.25
2023-09-13T05:11:00,75s,1.41
2023-09-13T05:12:00,75s,1.40
2023-09-13T05:13:00,75s,1.39
2023-09-13T05:14:00,75s,1.53
2023-09-13T05:15:00,75s,1.59
2023-09-13T05:16:00,75s,1.60
2023-09-13T05:17:00,75s,1.72
2023-09-13T05:18:00,75s,1.46
2023-09-13T05:19:00,75s,1.43
2023-09-13T05:20:00,75s,1.42
2023-09-13T05:21:00,75s,1.43
2023-09-13T05:22:00,75s,1.81
2023-09-13T05:23:00,75s,1.42
2023-09-13T05:24:00,75s,1.42
2023-09-13T05:25:00,75s,1.42
2023-09-13T05:26:00,75s,1.42
2023-09-13T05:27:00,75s,1.49
2023-09-13T05:28:00,75s,1.57
2023-09-13T05:29:00,75s,1.49
2023-09-13T05:30:00,75s,1.33
2023-09-13T05:31:00,75s,1.27
2023-09-13T05:32:00,75s,1.29
2023-09-13T05:33:00,75s,1.56
2023-09-13T05:34:00,75s,1.29
2023-09-13T05:35:00,75s,1.29
2023-09-13T05:36:00,75s,1.28
2023-09-13T05:37:00,75s,1.32
2023-09-13T05:38:00,75s,1.61
2023-09-13T05:39:00,75s,1.37
2023-09-13T05:40:00,75s,1.68
2023-09-13T05:41:00,75s,1.38
2023-09-13T05:42:00,75s,1.36
2023-09-13T05:43:00,75s,1.28
2023-09-13T05:44:00,75s,1.29
2023-09-13T05:45:00,75s,1.28
2023-09-13T05:46:00,75s,1.28
2023-09-13T05:47:00,75s,1.63
2023-09-13T05:48:00,75s,1.28
2023-09-13T05:49:00,75s,1.29
2023-09-13T05:50:00,75s,1.36
2023-09-13T05:51:00,75s,1.35
2023-09-13T05:52:00,75s,1.43
2023-09-13T05:53:00,75s,1.36
2023-09-13T05:54:00,75s,1.56
2023-09-13T05:55:00,75s,1.28
2023-09-13T05:56:00,75s,1.27
2023-09-13T05:57:00,75s,1.28
2023-09-13T05:58:00,75s,1.28
2023-09-13T05:59:00,75s,1.28
2023-09-13T06:00:00,75s,1.28
2023-09-13T06:01:00,75s,2.21
2023-09-13T06:02:00,75s,2.97
2023-09-13T06:03:00,75s,3.88
2023-09-13T06:04:00,75s,4.51
2023-09-13T06:05:00,75s,3.98
2023-09-13T06:06:00,75s,13.98
2023-09-13T06:07:00,75s,14.45
2023-09-13T06:08:00,75s,14.42
2023-09-13T06:09:00,75s,14.18
2023-09-13T06:10:00,75s,14.15
2023-09-13T06:11:00,75s,14.14
2023-09-13T06:12:00,75s,14.20
2023-09-13T06:13:00,75s,14.30
2023-09-13T06:14:00,75s,14.36
2023-09-13T06:15:00,75s,14.58
2023-09-13T06:16:00,75s,24.28
2023-09-13T06:17:00,75s,26.36
2023-09-13T06:18:00,75s,25.79
2023-09-13T06:19:00,75s,20.80
2023-09-13T06:20:00,75s,20.34
2023-09-13T06:21:00,75s,20.60
2023-09-13T06:22:00,75s,20.84
2023-09-13T06:23:00,75s,20.73
2023-09-13T06:24:00,75s,20.74
2023-09-13T06:25:00,75s,15.56
2023-09-13T06:26:00,75s,15.22
2023-09-13T06:27:00,75s,15.18
2023-09-13T06:28:00,75s,15.05
2023-09-13T06:29:00,75s,15.03
2023-09-13T06:30:00,75s,14.82
2023-09-13T06:31:00,75s,14.87
2023-09-13T06:32:00,75s,14.85
2023-09-13T06:33:00,75s,14.82
2023-09-13T06:34:00,75s,14.76
2023-09-13T06:35:00,75s,14.82
2023-09-13T06:36:00,75s,14.74
2023-09-13T06:37:00,75s,14.73
2023-09-13T06:38:00,75s,14.95
2023-09-13T06:39:00,75s,15.06
2023-09-13T06:40:00,75s,15.35
2023-09-13T06:41:00,75s,14.47
2023-09-13T06:42:00,75s,4.65
2023-09-13T06:43:00,75s,4.66
2023-09-13T06:44:00,75s,4.63
2023-09-13T06:45:00,75s,4.62
2023-09-13T06:46:00,75s,4.66
2023-09-13T06:47:00,75s,4.68
2023-09-13T06:48:00,75s,4.71
2023-09-13T06:49:00,75s,5.53
2023-09-13T06:50:00,75s,5.42
2023-09-13T06:51:00,75s,15.23
2023-09-13T06:52:00,75s,14.93
2023-09-13T06:53:00,75s,14.93
2023-09-13T06:54:00,75s,14.89
2023-09-13T06:55:00,75s,14.88
2023-09-13T06:56:00,75s,14.83
2023-09-13T06:57:00,75s,14.83
2023-09-13T06:58:00,75s,14.82
2023-09-13T06:59:00,75s,14.83
2023-09-13T07:00:00,75s,14.79
2023-09-13T07:01:00,75s,24.80
2023-09-13T07:02:00,75s,26.15
2023-09-13T07:03:00,75s,25.72
2023-09-13T07:04:00,75s,21.30
2023-09-13T07:05:00,75s,20.36
2023-09-13T07:06:00,75s,20.41
2023-09-13T07:07:00,75s,20.43
2023-09-13T07:08:00,75s,20.36
2023-09-13T07:09:00,75s,20.30
2023-09-13T07:10:00,75s,20.69
2023-09-13T07:11:00,75s,20.36
2023-09-13T07:12:00,75s,20.24
2023-09-13T07:13:00,75s,20.27
2023-09-13T07:14:00,75s,20.26
2023-09-13T07:15:00,75s,20.64
2023-09-13T07:16:00,75s,14.81
2023-09-13T07:17:00,75s,14.68
2023-09-13T07:18:00,75s,14.75
2023-09-13T07:19:00,75s,14.79
2023-09-13T07:20:00,75s,15.08
2023-09-13T07:21:00,75s,15.17
2023-09-13T07:22:00,75s,15.02
2023-09-13T07:23:00,75s,15.01
2023-09-13T07:24:00,75s,15.37
2023-09-13T07:25:00,75s,15.10
2023-09-13T07:26:00,75s,15.13
2023-09-13T07:27:00,75s,15.29
2023-09-13T07:28:00,75s,14.94
2023-09-13T07:29:00,75s,14.93
2023-09-13T07:30:00,75s,15.16
2023-09-13T07:31:00,75s,15.26
2023-09-13T07:32:00,75s,14.99
2023-09-13T07:33:00,75s,15.26
2023-09-13T07:34:00,75s,14.92
2023-09-13T07:35:00,75s,15.04
2023-09-13T07:36:00,75s,14.86
2023-09-13T07:37:00,75s,14.86
2023-09-13T07:38:00,75s,14.88
2023-09-13T07:39:00,75s,14.93
2023-09-13T07:40:00,75s,14.94
2023-09-13T07:41:00,75s,14.85
2023-09-13T07:42:00,75s,15.13
2023-09-13T07:43:00,75s,14.94
2023-09-13T07:44:00,75s,14.92
2023-09-13T07:45:00,75s,14.88
2023-09-13T07:46:00,75s,14.86
2023-09-13T07:47:00,75s,14.83
2023-09-13T07:48:00,75s,14.77
2023-09-13T07:49:00,75s,14.90
2023-09-13T07:50:00,75s,15.21
2023-09-13T07:51:00,75s,14.85
2023-09-13T07:52:00,75s,14.92
2023-09-13T07:53:00,75s,14.98
2023-09-13T07:54:00,75s,14.89
2023-09-13T07:55:00,75s,15.20
2023-09-13T07:56:00,75s,15.04
2023-09-13T07:57:00,75s,14.84
2023-09-13T07:58:00,75s,14.84
2023-09-13T07:59:00,75s,15.26
2023-09-13T08:00:00,75s,14.79
2023-09-13T08:01:00,75s,15.04
2023-09-13T08:02:00,75s,15.15
2023-09-13T08:03:00,75s,15.20
2023-09-13T08:04:00,75s,15.34
2023-09-13T08:05:00,75s,15.44
2023-09-13T08:06:00,75s,15.41
2023-09-13T08:07:00,75s,15.39
2023-09-13T08:08:00,75s,16.01
2023-09-13T08:09:00,75s,15.47
2023-09-13T08:10:00,75s,15.19
2023-09-13T08:11:00,75s,15.20
2023-09-13T08:12:00,75s,20.74
2023-09-13T08:13:00,75s,20.76
2023-09-13T08:14:00,75s,20.73
2023-09-13T08:15:00,75s,21.13
2023-09-13T08:16:00,75s,21.17
2023-09-13T08:17:00,75s,21.17
2023-09-13T08:18:00,75s,21.17
2023-09-13T08:19:00,75s,21.00
2023-09-13T08:20:00,75s,21.01
2023-09-13T08:21:00,75s,21.10
2023-09-13T08:22:00,75s,29.91
2023-09-13T08:23:00,75s,29.93
2023-09-13T08:24:00,75s,29.80
2023-09-13T08:25:00,75s,29.76
2023-09-13T08:26:00,75s,29.59
2023-09-13T08:27:00,75s,29.57
2023-09-13T08:28:00,75s,21.21
2023-09-13T08:29:00,75s,21.19
2023-09-13T08:30:00,75s,21.25
2023-09-13T08:31:00,75s,21.45
2023-09-13T08:32:00,75s,21.07
2023-09-13T08:33:00,75s,21.05
2023-09-13T08:34:00,75s,21.24
2023-09-13T08:35:00,75s,21.57
2023-09-13T08:36:00,75s,21.71
2023-09-13T08:37:00,75s,22.53
2023-09-13T08:38:00,75s,22.48
2023-09-13T08:39:00,75s,21.97
2023-09-13T08:40:00,75s,22.15
2023-09-13T08:41:00,75s,23.85
2023-09-13T08:42:00,75s,26.22
2023-09-13T08:43:00,75s,27.62
2023-09-13T08:44:00,75s,28.81
2023-09-13T08:45:00,75s,28.97
2023-09-13T08:46:00,75s,28.75
2023-09-13T08:47:00,75s,28.79
2023-09-13T08:48:00,75s,28.67
2023-09-13T08:49:00,75s,28.70
2023-09-13T08:50:00,75s,29.05
2023-09-13T08:51:00,75s,28.75
2023-09-13T08:52:00,75s,28.02
2023-09-13T08:53:00,75s,28.57
2023-09-13T08:54:00,75s,28.64
2023-09-13T08:55:00,75s,28.48
2023-09-13T08:56:00,75s,28.48
2023-09-13T08:57:00,75s,28.52
2023-09-13T08:58:00,75s,28.25
2023-09-13T08:59:00,75s,28.87
2023-09-13T09:00:00,75s,28.51
2023-09-13T09:01:00,75s,28.36
2023-09-13T09:02:00,75s,28.64
2023-09-13T09:03:00,75s,27.43
2023-09-13T09:04:00,75s,27.58
2023-09-13T09:05:00,75s,27.93
2023-09-13T09:06:00,75s,28.30
2023-09-13T09:07:00,75s,28.08
2023-09-13T09:08:00,75s,28.12
2023-09-13T09:09:00,75s,28.40
2023-09-13T09:10:00,75s,28.64
2023-09-13T09:11:00,75s,28.54
2023-09-13T09:12:00,75s,28.54
2023-09-13T09:13:00,75s,28.66
2023-09-13T09:14:00,75s,28.68
2023-09-13T09:15:00,75s,28.58
2023-09-13T09:16:00,75s,29.00
2023-09-13T09:17:00,75s,28.54
2023-09-13T09:18:00,75s,28.60
2023-09-13T09:19:00,75s,28.53
2023-09-13T09:20:00,75s,28.53
2023-09-13T09:21:00,75s,28.49
2023-09-13T09:22:00,75s,28.61
2023-09-13T09:23:00,75s,28.57
2023-09-13T09:24:00,75s,26.67
2023-09-13T09:25:00,75s,25.12
2023-09-13T09:26:00,75s,22.93
2023-09-13T09:27:00,75s,22.73
2023-09-13T09:28:00,75s,22.73
2023-09-13T09:29:00,75s,22.75
2023-09-13T09:30:00,75s,23.06
2023-09-13T09:31:00,75s,22.77
2023-09-13T09:32:00,75s,22.78
2023-09-13T09:33:00,75s,27.93
2023-09-13T09:34:00,75s,23.67
2023-09-13T09:35:00,75s,25.84
2023-09-13T09:36:00,75s,26.92
2023-09-13T09:37:00,75s,28.33
2023-09-13T09:38:00,75s,28.75
2023-09-13T09:39:00,75s,28.74
2023-09-13T09:40:00,75s,28.75
2023-09-13T09:41:00,75s,29.24
2023-09-13T09:42:00,75s,29.17
2023-09-13T09:43:00,75s,29.02
2023-09-13T09:44:00,75s,28.95
2023-09-13T09:45:00,75s,29.55
2023-09-13T09:46:00,75s,28.86
2023-09-13T09:47:00,75s,29.36
2023-09-13T09:48:00,75s,28.94
2023-09-13T09:49:00,75s,29.12
2023-09-13T09:50:00,75s,29.34
2023-09-13T09:51:00,75s,28.98
2023-09-13T09:52:00,75s,29.43
2023-09-13T09:53:00,75s,28.35
2023-09-13T09:54:00,75s,28.16
2023-09-13T09:55:00,75s,28.43
2023-09-13T09:56:00,75s,28.61
2023-09-13T09:57:00,75s,29.10
2023-09-13T09:58:00,75s,28.81
2023-09-13T09:59:00,75s,28.91
2023-09-13T10:00:00,75s,25.26
2023-09-13T10:01:00,75s,28.80
2023-09-13T10:02:00,75s,29.17
2023-09-13T10:03:00,75s,29.07
2023-09-13T10:04:00,75s,29.27
2023-09-13T10:05:00,75s,29.23
2023-09-13T10:06:00,75s,29.46
2023-09-13T10:07:00,75s,29.52
2023-09-13T10:08:00,75s,29.80
2023-09-13T10:09:00,75s,29.77
2023-09-13T10:10:00,75s,29.35
2023-09-13T10:11:00,75s,30.00
2023-09-13T10:12:00,75s,30.35
2023-09-13T10:13:00,75s,30.00
2023-09-13T10:14:00,75s,30.16
2023-09-13T10:15:00,75s,30.09
2023-09-13T10:16:00,75s,30.06
2023-09-13T10:17:00,75s,29.94
2023-09-13T10:18:00,75s,30.09
2023-09-13T10:19:00,75s,30.10
2023-09-13T10:20:00,75s,30.30
2023-09-13T10:21:00,75s,30.32
2023-09-13T10:22:00,75s,30.21
2023-09-13T10:23:00,75s,30.21
2023-09-13T10:24:00,75s,30.26
2023-09-13T10:25:00,75s,29.87
2023-09-13T10:26:00,75s,29.99
2023-09-13T10:27:00,75s,29.96
2023-09-13T10:28:00,75s,30.03
2023-09-13T10:29:00,75s,30.48
2023-09-13T10:30:00,75s,30.18
2023-09-13T10:31:00,75s,30.04
2023-09-13T10:32:00,75s,29.95
2023-09-13T10:33:00,75s,30.00
2023-09-13T10:34:00,75s,30.14
2023-09-13T10:35:00,75s,30.20
2023-09-13T10:36:00,75s,30.06
2023-09-13T10:37:00,75s,30.50
2023-09-13T10:38:00,75s,30.48
2023-09-13T10:39:00,75s,30.03
2023-09-13T10:40:00,75s,30.00
2023-09-13T10:41:00,75s,29.96
2023-09-13T10:42:00,75s,29.98
2023-09-13T10:43:00,75s,30.19
2023-09-13T10:44:00,75s,30.04
2023-09-13T10:45:00,75s,30.08
2023-09-13T10:46:00,75s,30.16
2023-09-13T10:47:00,75s,30.09
2023-09-13T10:48:00,75s,30.03
2023-09-13T10:49:00,75s,30.07
2023-09-13T10:50:00,75s,30.04
2023-09-13T10:51:00,75s,30.08
2023-09-13T10:52:00,75s,29.88
2023-09-13T10:53:00,75s,30.37
2023-09-13T10:54:00,75s,29.63
2023-09-13T10:55:00,75s,29.50
2023-09-13T10:56:00,75s,29.49
2023-09-13T10:57:00,75s,29.49
2023-09-13T10:58:00,75s,29.44
2023-09-13T10:59:00,75s,28.97
2023-09-13T11:00:00,75s,29.13
2023-09-13T11:01:00,75s,28.72
2023-09-13T11:02:00,75s,28.81
2023-09-13T11:03:00,75s,29.12
2023-09-13T11:04:00,75s,28.65
2023-09-13T11:05:00,75s,28.45
2023-09-13T11:06:00,75s,28.59
2023-09-13T11:07:00,75s,28.45
2023-09-13T11:08:00,75s,28.78
2023-09-13T11:09:00,75s,25.87
2023-09-13T11:10:00,75s,28.98
2023-09-13T11:11:00,75s,27.26
2023-09-13T11:12:00,75s,25.70
2023-09-13T11:13:00,75s,22.97
2023-09-13T11:14:00,75s,22.90
2023-09-13T11:15:00,75s,23.15
2023-09-13T11:16:00,75s,22.99
2023-09-13T11:17:00,75s,22.78
2023-09-13T11:18:00,75s,23.07
2023-09-13T11:19:00,75s,22.83
2023-09-13T11:20:00,75s,22.90
2023-09-13T11:21:00,75s,24.09
2023-09-13T11:22:00,75s,25.73
2023-09-13T11:23:00,75s,27.98
2023-09-13T11:24:00,75s,29.73
2023-09-13T11:25:00,75s,30.25
2023-09-13T11:26:00,75s,30.42
2023-09-13T11:27:00,75s,30.36
2023-09-13T11:28:00,75s,30.62
2023-09-13T11:29:00,75s,30.81
2023-09-13T11:30:00,75s,30.78
2023-09-13T11:31:00,75s,30.75
2023-09-13T11:32:00,75s,30.66
2023-09-13T11:33:00,75s,30.71
2023-09-13T11:34:00,75s,30.70
2023-09-13T11:35:00,75s,31.19
2023-09-13T11:36:00,75s,30.76
2023-09-13T11:37:00,75s,30.73
2023-09-13T11:38:00,75s,30.72
2023-09-13T11:39:00,75s,31.07
2023-09-13T11:40:00,75s,30.63
2023-09-13T11:41:00,75s,30.56
2023-09-13T11:42:00,75s,30.57
2023-09-13T11:43:00,75s,31.19
2023-09-13T11:44:00,75s,31.47
2023-09-13T11:45:00,75s,31.34
2023-09-13T11:46:00,75s,31.29
2023-09-13T11:47:00,75s,31.32
2023-09-13T11:48:00,75s,30.77
2023-09-13T11:49:00,75s,30.91
2023-09-13T11:50:00,75s,30.58
2023-09-13T11:51:00,75s,30.67
2023-09-13T11:52:00,75s,30.59
2023-09-13T11:53:00,75s,30.46
2023-09-13T11:54:00,75s,30.43
2023-09-13T11:55:00,75s,30.52
2023-09-13T11:56:00,75s,30.48
2023-09-13T11:57:00,75s,31.05
2023-09-13T11:58:00,75s,31.39
2023-09-13T11:59:00,75s,39.72
2023-09-13T12:00:00,75s,39.91
2023-09-13T12:01:00,75s,39.55
2023-09-13T12:02:00,75s,39.30
2023-09-13T12:03:00,75s,39.17
2023-09-13T12:04:00,75s,30.50
2023-09-13T12:05:00,75s,31.07
2023-09-13T12:06:00,75s,30.68
2023-09-13T12:07:00,75s,30.96
2023-09-13T12:08:00,75s,30.92
2023-09-13T12:09:00,75s,30.96
2023-09-13T12:10:00,75s,30.92
2023-09-13T12:11:00,75s,31.53
2023-09-13T12:12:00,75s,31.58
2023-09-13T12:13:00,75s,31.45
2023-09-13T12:14:00,75s,31.70
2023-09-13T12:15:00,75s,30.86
2023-09-13T12:16:00,75s,30.99
2023-09-13T12:17:00,75s,31.53
2023-09-13T12:18:00,75s,30.95
2023-09-13T12:19:00,75s,30.94
2023-09-13T12:20:00,75s,30.94
2023-09-13T12:21:00,75s,31.20
2023-09-13T12:22:00,75s,30.86
2023-09-13T12:23:00,75s,30.90
2023-09-13T12:24:00,75s,30.86
2023-09-13T12:25:00,75s,30.93
2023-09-13T12:26:00,75s,30.76
2023-09-13T12:27:00,75s,31.41
2023-09-13T12:28:00,75s,30.93
2023-09-13T12:29:00,75s,30.99
2023-09-13T12:30:00,75s,30.82
2023-09-13T12:31:00,75s,30.74
2023-09-13T12:32:00,75s,30.70
2023-09-13T12:33:00,75s,30.39
2023-09-13T12:34:00,75s,30.63
2023-09-13T12:35:00,75s,30.36
2023-09-13T12:36:00,75s,30.53
2023-09-13T12:37:00,75s,31.37
2023-09-13T12:38:00,75s,30.99
2023-09-13T12:39:00,75s,30.87
2023-09-13T12:40:00,75s,30.82
2023-09-13T12:41:00,75s,31.05
2023-09-13T12:42:00,75s,30.69
2023-09-13T12:43:00,75s,30.30
2023-09-13T12:44:00,75s,30.31
2023-09-13T12:45:00,75s,30.08
2023-09-13T12:46:00,75s,30.13
2023-09-13T12:47:00,75s,30.34
2023-09-13T12:48:00,75s,30.25
2023-09-13T12:49:00,75s,30.43
2023-09-13T12:50:00,75s,30.71
2023-09-13T12:51:00,75s,30.26
2023-09-13T12:52:00,75s,30.35
2023-09-13T12:53:00,75s,30.15
2023-09-13T12:54:00,75s,31.39
2023-09-13T12:55:00,75s,30.72
2023-09-13T12:56:00,75s,30.73
2023-09-13T12:57:00,75s,30.64
2023-09-13T12:58:00,75s,31.37
2023-09-13T12:59:00,75s,31.44
2023-09-13T13:00:00,75s,31.43
2023-09-13T13:01:00,75s,31.40
2023-09-13T13:02:00,75s,30.88
2023-09-13T13:03:00,75s,31.11
2023-09-13T13:04:00,75s,31.00
2023-09-13T13:05:00,75s,30.70
2023-09-13T13:06:00,75s,31.46
2023-09-13T13:07:00,75s,30.40
2023-09-13T13:08:00,75s,30.33
2023-09-13T13:09:00,75s,30.85
2023-09-13T13:10:00,75s,30.80
2023-09-13T13:11:00,75s,30.96
2023-09-13T13:12:00,75s,30.76
2023-09-13T13:13:00,75s,31.36
2023-09-13T13:14:00,75s,30.66
2023-09-13T13:15:00,75s,30.87
2023-09-13T13:16:00,75s,30.91
2023-09-13T13:17:00,75s,31.01
2023-09-13T13:18:00,75s,31.05
2023-09-13T13:19:00,75s,31.85
2023-09-13T13:20:00,75s,31.03
2023-09-13T13:21:00,75s,31.06
2023-09-13T13:22:00,75s,30.89
2023-09-13T13:23:00,75s,30.83
2023-09-13T13:24:00,75s,30.82
2023-09-13T13:25:00,75s,31.05
2023-09-13T13:26:00,75s,31.98
2023-09-13T13:27:00,75s,30.96
2023-09-13T13:28:00,75s,31.09
2023-09-13T13:29:00,75s,31.10
2023-09-13T13:30:00,75s,31.10